This demonstration page uses our WeatherBlox Daily Observations layout. Learn more.

Left ArrowRight Arrow

34.02893, -84.19858

Hourly Observations for July 5, 2018

Temp ( °F °C ) Dew Point ( °F °C ) Humidity (%) Winds ( mph kmh ) Pressure ( in mb ) Visibility ( mi km ) Precip ( " mm )
12:53 am 00:53 Cloudy with Haze 76 24.4 71 21.7 85 85 Calm 30.18 1022 5 8 0.00 0.00
1:53 am 01:53 Hazy 76 24.4 71 21.7 85 85 Calm 30.17 1022 6 10 0.00 0.00
2:53 am 02:53 Cloudy 76 24.4 71 21.7 85 85 Calm 30.17 1022 7 11 0.00 0.00
3:53 am 03:53 Clear 75 23.9 71 21.7 88 88 Calm 30.16 1022 7 11 0.00 0.00
4:53 am 04:53 Clear 73 22.8 71 21.7 94 94 N 5 7 30.18 1022 7 11 0.00 0.00
5:53 am 05:53 Partly Cloudy 74 23.3 72 22.2 94 94 Calm 30.20 1023 8 13 0.00 0.00
6:53 am 06:53 Sunny with Mist and Fog 74 23.3 71 21.7 91 91 Calm 30.21 1023 6 10 0.00 0.00
7:53 am 07:53 Mostly Sunny 76 24.4 72 22.2 88 88 Calm 30.23 1024 8 13 0.00 0.00
8:53 am 08:53 Partly Cloudy 78 25.6 72 22.2 82 82 VRB 5 7 30.24 1024 10 16 0.00 0.00
9:08 am 09:08 Mostly Cloudy 78 25.6 72 22.2 82 82 VRB 6 9 30.27 1025 10 16 0.00 0.00
9:53 am 09:53 Mostly Cloudy 79 26.1 72 22.2 79 79 VRB 5 7 30.24 1024 10 16 0.00 0.00
10:53 am 10:53 Mostly Cloudy 80 26.7 72 22.2 76 76 ESE 3 6 30.23 1024 10 16 0.00 0.00
11:21 am 11:21 Cloudy 82 27.8 71 21.7 69 69 VRB 5 7 30.24 1024 10 16 0.00 0.00
11:53 am 11:53 Partly Cloudy 84 28.9 71 21.7 65 65 VRB 5 7 30.23 1024 10 16 0.00 0.00
12:53 pm 12:53 Partly Cloudy 84 28.9 70 21.1 63 63 VRB 7 11 30.22 1024 10 16 0.00 0.00
1:53 pm 13:53 Partly Cloudy 87 30.6 71 21.7 59 59 ENE 8 13 30.20 1023 10 16 0.00 0.00
2:53 pm 14:53 Partly Cloudy 87 30.6 70 21.1 57 57 VRB 5 7 30.18 1022 10 16 0.00 0.00
3:53 pm 15:53 Mostly Cloudy 85 29.4 71 21.7 63 63 VRB 7 11 30.17 1022 10 16 0.00 0.00
4:53 pm 16:53 Mostly Sunny 87 30.6 71 21.7 59 59 VRB 6 9 30.15 1021 10 16 0.00 0.00
5:53 pm 17:53 Mostly Sunny 83 28.3 70 21.1 65 65 ESE 3 6 30.14 1021 10 16 0.00 0.03
6:53 pm 18:53 Sunny 85 29.4 70 21.1 61 61 VRB 6 9 30.14 1021 10 16 0.00 0.00
7:53 pm 19:53 Sunny 84 28.9 70 21.1 63 63 E 5 7 30.14 1021 10 16 0.00 0.00
8:53 pm 20:53 Clear 82 27.8 71 21.7 69 69 Calm 30.16 1021 10 16 0.00 0.00
9:53 pm 21:53 Clear 81 27.2 71 21.7 72 72 Calm 30.18 1022 10 16 0.00 0.00
10:53 pm 22:53 Clear 77 25 73 22.8 88 88 Calm 30.20 1023 10 16 0.00 0.00
11:53 pm 23:53 Clear 77 25 73 22.8 88 88 Calm 30.18 1022 10 16 0.00 0.00

Powered by AerisWeather